CCM29H LFKJ-LFML

Flight info

Callsign CCM29H
Flight time 0h 44m
Altitude 24000
Route TINOT
Aircraft A320/M-SDE3FGHIRWY/LB1

Departure

Time 2026-04-28 19:03
Airport Ajaccio Napoléon Bonaparte airport (LFKJ)

Arrival

Time 2026-04-28 19:47
Airport Marseille Provence Airport (LFML)
Time Latitude Longitude Altitude Speed Heading
2026-04-28 18:22 41.91803 8.79466 25 ft 0 kts 310°
2026-04-28 18:23 41.91802 8.79468 33 ft 0 kts 310°
2026-04-28 18:24 41.91967 8.79568 29 ft 0 kts 314°
2026-04-28 18:48 41.91958 8.79580 31 ft 4 kts 319°
2026-04-28 18:48 41.91937 8.79601 29 ft 4 kts 333°
2026-04-28 18:49 41.91912 8.79613 29 ft 4 kts 353°
2026-04-28 18:49 41.91903 8.79615 26 ft 4 kts 359°
2026-04-28 18:49 41.91860 8.79601 28 ft 4 kts 29°
2026-04-28 18:49 41.91838 8.79581 30 ft 4 kts 39°
2026-04-28 18:50 41.91818 8.79558 28 ft 4 kts 38°
2026-04-28 18:50 41.91804 8.79545 30 ft 0 kts 24°
2026-04-28 18:52 41.91821 8.79556 30 ft 9 kts 25°
2026-04-28 18:52 41.91909 8.79612 29 ft 16 kts 25°
2026-04-28 18:52 41.92016 8.79678 28 ft 18 kts 26°
2026-04-28 18:52 41.92130 8.79751 29 ft 19 kts 25°
2026-04-28 18:53 41.92242 8.79817 29 ft 17 kts 25°
2026-04-28 18:53 41.92356 8.79890 27 ft 19 kts 25°
2026-04-28 18:53 41.92479 8.79967 30 ft 21 kts 25°
2026-04-28 18:53 41.92613 8.80051 28 ft 22 kts 24°
2026-04-28 18:54 41.92756 8.80145 30 ft 23 kts 35°
2026-04-28 18:54 41.92858 8.80265 28 ft 12 kts 44°
2026-04-28 18:54 41.92903 8.80326 26 ft 7 kts 46°
2026-04-28 18:54 41.92908 8.80332 26 ft 0 kts 46°
2026-04-28 18:55 41.92918 8.80346 26 ft 7 kts 46°
2026-04-28 18:56 41.92960 8.80418 27 ft 9 kts 67°
2026-04-28 18:56 41.92962 8.80423 27 ft 0 kts 71°
2026-04-28 18:57 41.92964 8.80461 27 ft 2 kts 97°
2026-04-28 18:57 41.92964 8.80462 27 ft 0 kts 97°
2026-04-28 18:59 41.92964 8.80463 27 ft 1 kts 97°
2026-04-28 18:59 41.92951 8.80534 29 ft 14 kts 103°
2026-04-28 18:59 41.93013 8.80629 29 ft 16 kts 25°
2026-04-28 18:59 41.93132 8.80645 27 ft 18 kts 356°
2026-04-28 19:00 41.93123 8.80700 27 ft 11 kts 201°
2026-04-28 19:00 41.93094 8.80681 27 ft 0 kts 205°
2026-04-28 19:02 41.93003 8.80624 29 ft 50 kts 205°
2026-04-28 19:03 41.92443 8.80276 25 ft 124 kts 205°
2026-04-28 19:03 41.91487 8.79693 146 ft 167 kts 204°
2026-04-28 19:03 41.90414 8.79000 764 ft 175 kts 205°
2026-04-28 19:03 41.89335 8.78182 1441 ft 182 kts 214°
2026-04-28 19:04 41.88291 8.77196 2123 ft 184 kts 215°
2026-04-28 19:04 41.87225 8.76183 2682 ft 193 kts 214°
2026-04-28 19:04 41.86071 8.75106 3006 ft 215 kts 214°
2026-04-28 19:04 41.84752 8.73886 3033 ft 246 kts 214°
2026-04-28 19:05 41.83274 8.72520 3035 ft 264 kts 214°
2026-04-28 19:05 41.81756 8.71119 3036 ft 264 kts 214°
2026-04-28 19:05 41.80261 8.69739 3030 ft 264 kts 214°
2026-04-28 19:05 41.78747 8.68358 3396 ft 263 kts 213°
2026-04-28 19:06 41.77223 8.66985 4280 ft 266 kts 213°
2026-04-28 19:06 41.76183 8.66053 4945 ft 266 kts 213°
2026-04-28 19:06 41.74136 8.64223 6206 ft 268 kts 213°
2026-04-28 19:06 41.72759 8.62551 7097 ft 270 kts 234°
2026-04-28 19:07 41.72002 8.60247 7932 ft 276 kts 259°
2026-04-28 19:07 41.72058 8.57672 8736 ft 282 kts 284°
2026-04-28 19:07 41.72889 8.55275 9547 ft 288 kts 299°
2026-04-28 19:07 41.73893 8.52923 10274 ft 295 kts 299°
2026-04-28 19:08 41.74937 8.50477 10704 ft 312 kts 299°
2026-04-28 19:08 41.76042 8.47881 11102 ft 329 kts 298°
2026-04-28 19:08 41.77198 8.45149 11457 ft 346 kts 298°
2026-04-28 19:08 41.78406 8.42281 11845 ft 360 kts 298°
2026-04-28 19:09 41.79644 8.39336 12476 ft 366 kts 298°
2026-04-28 19:09 41.80895 8.36347 13201 ft 369 kts 298°
2026-04-28 19:09 41.82153 8.33333 13885 ft 372 kts 298°
2026-04-28 19:09 41.83418 8.30281 14503 ft 376 kts 297°
2026-04-28 19:10 41.84466 8.27052 15116 ft 379 kts 291°
2026-04-28 19:10 41.85462 8.23773 15721 ft 382 kts 291°
2026-04-28 19:10 41.86460 8.20495 16321 ft 385 kts 291°
2026-04-28 19:10 41.87478 8.17156 16932 ft 389 kts 291°
2026-04-28 19:11 41.88506 8.13782 17528 ft 392 kts 291°
2026-04-28 19:11 41.89542 8.10374 18128 ft 396 kts 291°
2026-04-28 19:11 41.90585 8.06942 18670 ft 399 kts 291°
2026-04-28 19:11 41.91636 8.03479 19194 ft 402 kts 291°
2026-04-28 19:12 41.92693 7.99986 19715 ft 405 kts 291°
2026-04-28 19:12 41.93757 7.96463 20220 ft 409 kts 291°
2026-04-28 19:12 41.94829 7.92913 20713 ft 412 kts 291°
2026-04-28 19:12 41.95909 7.89335 21197 ft 415 kts 291°
2026-04-28 19:13 41.96993 7.85730 21668 ft 418 kts 291°
2026-04-28 19:13 41.98084 7.82095 22131 ft 421 kts 291°
2026-04-28 19:13 41.99182 7.78437 22577 ft 424 kts 291°
2026-04-28 19:13 42.00290 7.74741 23017 ft 427 kts 291°
2026-04-28 19:14 42.01399 7.71035 23437 ft 430 kts 291°
2026-04-28 19:14 42.02517 7.67296 23813 ft 432 kts 291°
2026-04-28 19:14 42.03639 7.63540 23982 ft 433 kts 291°
2026-04-28 19:14 42.04776 7.59735 24018 ft 444 kts 292°
2026-04-28 19:15 42.05937 7.55844 24022 ft 451 kts 292°
2026-04-28 19:15 42.07102 7.51925 24019 ft 451 kts 292°
2026-04-28 19:15 42.08267 7.48001 24019 ft 451 kts 292°
2026-04-28 19:15 42.09039 7.45400 24020 ft 451 kts 292°
2026-04-28 19:16 42.10588 7.40159 24019 ft 450 kts 292°
2026-04-28 19:16 42.11742 7.36241 24019 ft 450 kts 292°
2026-04-28 19:16 42.12894 7.32322 24018 ft 450 kts 292°
2026-04-28 19:16 42.14045 7.28402 24019 ft 450 kts 292°
2026-04-28 19:17 42.15181 7.24537 24018 ft 449 kts 292°
2026-04-28 19:17 42.16333 7.20623 24018 ft 449 kts 292°
2026-04-28 19:17 42.17483 7.16704 24018 ft 449 kts 292°
2026-04-28 19:17 42.18627 7.12789 24017 ft 449 kts 292°
2026-04-28 19:18 42.19771 7.08866 24028 ft 449 kts 292°
2026-04-28 19:18 42.20913 7.04941 24032 ft 449 kts 292°
2026-04-28 19:18 42.22050 7.01026 24034 ft 448 kts 292°
2026-04-28 19:18 42.23188 6.97117 24034 ft 448 kts 292°
2026-04-28 19:19 42.24328 6.93204 24036 ft 447 kts 292°
2026-04-28 19:19 42.25465 6.89301 24031 ft 447 kts 292°
2026-04-28 19:19 42.26600 6.85396 24029 ft 447 kts 292°
2026-04-28 19:19 42.27731 6.81485 24021 ft 447 kts 292°
2026-04-28 19:20 42.28857 6.77574 24026 ft 447 kts 292°
2026-04-28 19:20 42.29979 6.73670 24023 ft 446 kts 292°
2026-04-28 19:20 42.31101 6.69761 24023 ft 446 kts 292°
2026-04-28 19:20 42.32219 6.65857 24024 ft 446 kts 292°
2026-04-28 19:21 42.33337 6.61951 24028 ft 446 kts 292°
2026-04-28 19:21 42.34456 6.58050 24030 ft 445 kts 292°
2026-04-28 19:21 42.35575 6.54146 24026 ft 445 kts 292°
2026-04-28 19:21 42.36676 6.50300 24023 ft 445 kts 292°
2026-04-28 19:22 42.37789 6.46400 24023 ft 444 kts 291°
2026-04-28 19:22 42.38539 6.43765 24019 ft 444 kts 291°
2026-04-28 19:22 42.40008 6.38600 24022 ft 444 kts 291°
2026-04-28 19:22 42.41113 6.34702 24022 ft 444 kts 291°
2026-04-28 19:23 42.42214 6.30800 24024 ft 444 kts 291°
2026-04-28 19:23 42.43315 6.26899 24023 ft 444 kts 291°
2026-04-28 19:23 42.44417 6.23001 24022 ft 443 kts 291°
2026-04-28 19:23 42.45522 6.19099 24022 ft 443 kts 291°
2026-04-28 19:24 42.46624 6.15199 24026 ft 443 kts 291°
2026-04-28 19:24 42.47723 6.11299 24032 ft 443 kts 291°
2026-04-28 19:24 42.48818 6.07400 24032 ft 443 kts 291°
2026-04-28 19:24 42.49910 6.03500 24029 ft 443 kts 291°
2026-04-28 19:25 42.51001 5.99595 24020 ft 443 kts 291°
2026-04-28 19:25 42.52089 5.95684 23798 ft 442 kts 291°
2026-04-28 19:25 42.53161 5.91838 23566 ft 441 kts 291°
2026-04-28 19:25 42.54243 5.87954 23293 ft 439 kts 291°
2026-04-28 19:26 42.55318 5.84090 23024 ft 437 kts 290°
2026-04-28 19:26 42.56389 5.80235 22757 ft 436 kts 290°
2026-04-28 19:26 42.57454 5.76401 22495 ft 434 kts 290°
2026-04-28 19:26 42.58515 5.72578 22227 ft 432 kts 290°
2026-04-28 19:27 42.59569 5.68764 21972 ft 430 kts 290°
2026-04-28 19:27 42.60617 5.64966 21713 ft 429 kts 290°
2026-04-28 19:27 42.61658 5.61184 21456 ft 427 kts 290°
2026-04-28 19:27 42.62693 5.57414 21171 ft 423 kts 290°
2026-04-28 19:28 42.63713 5.53695 20544 ft 418 kts 290°
2026-04-28 19:28 42.64724 5.50008 19901 ft 414 kts 290°
2026-04-28 19:28 42.65723 5.46363 19315 ft 410 kts 290°
2026-04-28 19:28 42.66714 5.42738 18730 ft 407 kts 290°
2026-04-28 19:29 42.67692 5.39153 18144 ft 403 kts 290°
2026-04-28 19:29 42.68375 5.36813 17746 ft 401 kts 294°
2026-04-28 19:29 42.70325 5.32555 17050 ft 394 kts 309°
2026-04-28 19:29 42.72258 5.29875 16621 ft 402 kts 319°
2026-04-28 19:30 42.74518 5.27729 16214 ft 401 kts 329°
2026-04-28 19:30 42.76924 5.25820 15770 ft 399 kts 329°
2026-04-28 19:30 42.79316 5.23918 15370 ft 397 kts 329°
2026-04-28 19:30 42.81697 5.22019 14954 ft 395 kts 329°
2026-04-28 19:31 42.84064 5.20127 14540 ft 394 kts 328°
2026-04-28 19:31 42.86421 5.18242 14126 ft 392 kts 328°
2026-04-28 19:31 42.88771 5.16360 13702 ft 390 kts 328°
2026-04-28 19:31 42.91103 5.14489 13271 ft 388 kts 328°
2026-04-28 19:32 42.93435 5.12661 12867 ft 385 kts 333°
2026-04-28 19:32 42.95918 5.11317 12460 ft 384 kts 343°
2026-04-28 19:32 42.98498 5.10411 12064 ft 381 kts 345°
2026-04-28 19:32 43.01064 5.09528 11663 ft 379 kts 345°
2026-04-28 19:33 43.03615 5.08650 11268 ft 376 kts 345°
2026-04-28 19:33 43.06144 5.07777 10893 ft 372 kts 345°
2026-04-28 19:33 43.08596 5.06927 10756 ft 355 kts 345°
2026-04-28 19:33 43.10934 5.06111 10635 ft 339 kts 345°
2026-04-28 19:34 43.13169 5.05328 10515 ft 324 kts 345°
2026-04-28 19:34 43.15281 5.04586 10400 ft 311 kts 345°
2026-04-28 19:34 43.17323 5.03866 10251 ft 300 kts 345°
2026-04-28 19:34 43.19317 5.03164 10074 ft 292 kts 345°
2026-04-28 19:35 43.21319 5.02656 9874 ft 293 kts 356°
2026-04-28 19:35 43.23345 5.02514 9575 ft 291 kts 357°
2026-04-28 19:35 43.25369 5.02374 9332 ft 290 kts 357°
2026-04-28 19:35 43.27387 5.02230 9075 ft 289 kts 357°
2026-04-28 19:36 43.29390 5.02084 8818 ft 288 kts 357°
2026-04-28 19:36 43.31392 5.01935 8566 ft 288 kts 357°
2026-04-28 19:36 43.33388 5.01796 8314 ft 287 kts 360°
2026-04-28 19:36 43.35380 5.01883 8056 ft 286 kts
2026-04-28 19:37 43.37364 5.01983 7802 ft 285 kts
2026-04-28 19:37 43.38674 5.02046 7638 ft 284 kts
2026-04-28 19:37 43.41313 5.02119 7294 ft 283 kts 356°
2026-04-28 19:37 43.43211 5.01560 7042 ft 283 kts 339°
2026-04-28 19:38 43.44941 5.00271 6619 ft 285 kts 322°
2026-04-28 19:38 43.46394 4.98419 6135 ft 285 kts 315°
2026-04-28 19:38 43.47811 4.96507 5688 ft 284 kts 316°
2026-04-28 19:38 43.49225 4.94615 5260 ft 282 kts 316°
2026-04-28 19:39 43.50624 4.92752 5022 ft 275 kts 316°
2026-04-28 19:39 43.52009 4.90910 5021 ft 278 kts 316°
2026-04-28 19:39 43.53405 4.89049 5028 ft 278 kts 316°
2026-04-28 19:39 43.54769 4.87229 5027 ft 274 kts 316°
2026-04-28 19:40 43.56211 4.85683 5020 ft 252 kts 338°
2026-04-28 19:40 43.57841 4.85284 5038 ft 230 kts
2026-04-28 19:40 43.59270 4.85959 5031 ft 209 kts 37°
2026-04-28 19:40 43.60229 4.87298 5062 ft 187 kts 60°
2026-04-28 19:41 43.60850 4.88782 5038 ft 171 kts 62°
2026-04-28 19:41 43.61435 4.90175 4852 ft 165 kts 62°
2026-04-28 19:41 43.61992 4.91507 4724 ft 154 kts 62°
2026-04-28 19:41 43.62402 4.92901 4666 ft 171 kts 81°
2026-04-28 19:42 43.62318 4.94571 4554 ft 176 kts 109°
2026-04-28 19:42 43.61655 4.95964 4390 ft 175 kts 136°
2026-04-28 19:42 43.60784 4.97164 4305 ft 184 kts 135°
2026-04-28 19:42 43.60171 4.98020 4225 ft 191 kts 135°
2026-04-28 19:43 43.58919 4.99766 4055 ft 191 kts 135°
2026-04-28 19:43 43.57952 5.01113 3823 ft 205 kts 135°
2026-04-28 19:43 43.56964 5.02490 3571 ft 200 kts 135°
2026-04-28 19:43 43.55988 5.03849 3311 ft 200 kts 135°
2026-04-28 19:44 43.55015 5.05203 3049 ft 198 kts 135°
2026-04-28 19:44 43.54050 5.06544 2788 ft 195 kts 135°
2026-04-28 19:44 43.53093 5.07874 2522 ft 195 kts 135°
2026-04-28 19:44 43.52153 5.09181 2268 ft 195 kts 135°
2026-04-28 19:45 43.51201 5.10503 2013 ft 194 kts 135°
2026-04-28 19:45 43.50250 5.11822 1730 ft 194 kts 135°
2026-04-28 19:45 43.49299 5.13141 1461 ft 194 kts 135°
2026-04-28 19:45 43.48351 5.14455 1204 ft 189 kts 134°
2026-04-28 19:46 43.47464 5.15685 969 ft 174 kts 135°
2026-04-28 19:46 43.46663 5.16796 764 ft 153 kts 136°
2026-04-28 19:46 43.45953 5.17779 573 ft 139 kts 136°
2026-04-28 19:46 43.45272 5.18717 404 ft 139 kts 137°
2026-04-28 19:47 43.44606 5.19641 246 ft 134 kts 135°
2026-04-28 19:47 43.44179 5.20260 101 ft 136 kts 137°
2026-04-28 19:47 43.43404 5.21310 34 ft 75 kts 135°
2026-04-28 19:47 43.43218 5.21564 33 ft 40 kts 135°
2026-04-28 19:48 43.43094 5.21736 34 ft 22 kts 134°
2026-04-28 19:48 43.42982 5.21897 35 ft 24 kts 136°
2026-04-28 19:48 43.42932 5.22065 37 ft 14 kts 81°
2026-04-28 19:48 43.42950 5.22209 36 ft 17 kts 80°
2026-04-28 19:49 43.43016 5.22390 36 ft 17 kts 40°
2026-04-28 19:49 43.43082 5.22467 37 ft 19 kts 36°
2026-04-28 19:49 43.43214 5.22490 35 ft 20 kts 323°
2026-04-28 19:49 43.43296 5.22375 37 ft 18 kts 315°
2026-04-28 19:50 43.43502 5.22219 37 ft 14 kts 331°
2026-04-28 19:50 43.43600 5.22142 37 ft 18 kts 329°
2026-04-28 19:50 43.43668 5.22097 37 ft 6 kts 358°
2026-04-28 19:51 43.43691 5.22125 36 ft 4 kts 63°
2026-04-28 19:51 43.43731 5.22194 37 ft 12 kts 46°
2026-04-28 19:51 43.43745 5.22215 37 ft 1 kts 58°
2026-04-28 19:51 43.43732 5.22279 37 ft 14 kts 111°
2026-04-28 19:52 43.43750 5.22408 38 ft 11 kts 73°
2026-04-28 19:52 43.43754 5.22420 38 ft 0 kts 64°
2026-04-28 19:52 43.43755 5.22423 38 ft 2 kts 67°
2026-04-28 19:52 43.43765 5.22472 37 ft 5 kts 75°
2026-04-28 19:53 43.43779 5.22493 36 ft 4 kts 20°
2026-04-28 19:53 43.43813 5.22473 37 ft 1 kts 330°
2026-04-28 19:53 43.43817 5.22470 38 ft 0 kts 332°